Tracking 30995 objects as of 6-Jul-2025
HD Live streaming from Space Station
objects crossing your sky now

ATLAS F R/B

Track ATLAS F R/B now!
10-day predictions


NORAD ID: 11142
Int'l Code: 1978-112B
Perigee: 1,041.7 km
Apogee: 13,847.5 km
Inclination: 64.3 °
Period: 269.3 minutes
Semi major axis: 13815 km
RCS: 1.5941 m2 (large)
Launch date: December 11, 1978
Source: United States (US)
Launch site: AIR FORCE WESTERN TEST RANGE (AFWTR)

Note: This is a ROCKET BODY
Your satellite tracking list
Your tracking list is empty




NASA's NSSDC Master Catalog

Two Line Element Set (TLE):
1 11142U 78112B   25185.73508671  .00000037  00000-0  17774-2 0  9994
2 11142  64.3006 303.2408 4634521 259.8024 319.0507  5.34623411897092
Source of the keplerian elements: AFSPC